sat.trackr.live / text

‹ back to catalog

STARLINK-35924

NORAD 66516 · 2025-265A

PAYLOAD ACTIVE UNKNOWN

§ Identity

Operator
Country
US
Launch date
2025-11-19
Launch site
AFETR
Launch vehicle
Mass (kg)
RCS (m²)

Purposes: comms

External: N2YO · Heavens-Above · Gunter

§ Orbital elements

Epoch: 2026-05-25T04:09:22.782240Z

Period
94.27 min
Inclination
42.9978°
Eccentricity
0.0001001
Mean motion
15.27596189 rev/d
Perigee alt
482.3 km
Apogee alt
483.7 km
Semi-major
6,861.1 km
B*
6.1760e-4
RAAN
205.7404°
Arg perigee
280.0226°
Mean anomaly
80.0513°
Rev number
2,881

§ Raw data

STARLINK-359241 66516U 25265A   26145.17318035  .00016780  00000+0  61760-3 0  99942 66516  42.9978 205.7404 0001001 280.0226  80.0513 15.27596189 28818

JSON: /api/v1/satellites/66516 · /tle

For live sub-satellite position, see the globe view (requires WebGL).

§ Visibility from observer

Set your observer location to see the next 7 days of passes ≥ 10°. The values pass through the URL so the page stays shareable.

No JS? Fill the form by hand. The geolocation button needs JavaScript.